�N����,�����b,�ŏ������i�x�j,���ϕ����i�x�j,�ő啗���i�x�j,�ŏ�����(m/s),���ϕ���(m/s),�ő啗��(m/s),�C��(���j,���x�i���j,�C��(hPa),�~�J��(mm),�~�J����(�b�j,�~�J���x(mm/h),�ő�~�J���x(mm/h),�~�Ђ傤��(hit/���u),�~�Ђ傤����(�b�j,�~�Ђ傤���x(hit/���uh),�ő�~�Ђ傤���x(hit/���uh),�q�[�^���x(���j,�q�[�^�[�d���iV),�d���d���iV),�Q�Ɠd���iV)
2015/08/01,00:00:01,////,////,////,0.0,0.0,0.1,27.2,86.0,1004.6,0.00,0,0.0,////,0.0,0,0.0,////,25.8,0.0,12.3,3.514
2015/08/01,00:10:01,182,183,186,0.3,0.4,0.5,27.2,86.0,1004.5,0.00,0,0.0,////,0.0,0,0.0,////,25.6,0.0,12.3,3.515
2015/08/01,00:20:01,200,209,214,0.2,0.3,0.4,27.2,85.9,1004.5,0.00,0,0.0,////,0.0,0,0.0,////,25.8,0.0,12.3,3.515
2015/08/01,00:30:01,223,224,225,0.2,0.3,0.3,27.1,85.9,1004.5,0.00,0,0.0,////,0.0,0,0.0,////,25.6,0.0,12.3,3.515
2015/08/01,00:40:01,216,217,218,0.5,0.6,0.7,27.1,87.2,1004.4,0.00,0,0.0,////,0.0,0,0.0,////,25.6,0.0,12.3,3.515
2015/08/01,00:50:01,229,230,231,0.6,0.7,0.7,27.1,87.2,1004.4,0.00,0,0.0,////,0.0,0,0.0,////,25.8,0.0,12.3,3.514
2015/08/01,01:00:01,215,215,216,1.0,1.1,1.2,27.1,87.1,1004.3,0.00,0,0.0,////,0.0,0,0.0,////,25.8,0.0,12.3,3.515
2015/08/01,01:10:01,196,198,201,1.0,1.1,1.2,27.1,86.9,1004.3,0.00,0,0.0,////,0.0,0,0.0,////,25.8,0.0,12.3,3.515
2015/08/01,01:20:01,195,197,199,1.1,1.2,1.3,26.9,87.6,1004.3,0.00,0,0.0,////,0.0,0,0.0,////,25.8,0.0,12.3,3.513
2015/08/01,01:30:01,202,202,202,1.3,1.4,1.4,26.8,88.3,1004.2,0.00,0,0.0,////,0.0,0,0.0,////,25.8,0.0,12.3,3.515
2015/08/01,01:40:01,196,199,204,1.2,1.4,1.4,26.6,89.0,1004.1,0.00,0,0.0,////,0.0,0,0.0,////,25.6,0.0,12.3,3.514
2015/08/01,01:50:01,197,199,200,1.2,1.3,1.4,26.7,89.5,1004.2,0.00,0,0.0,////,0.0,0,0.0,////,25.6,0.0,12.3,3.514
2015/08/01,02:00:01,214,216,217,1.2,1.2,1.3,26.7,89.1,1004.3,0.00,0,0.0,////,0.0,0,0.0,////,25.6,0.0,12.3,3.514
2015/08/01,02:10:01,210,211,213,1.1,1.2,1.3,26.7,88.9,1004.4,0.00,0,0.0,////,0.0,0,0.0,////,25.6,0.0,12.3,3.515
2015/08/01,02:20:01,203,205,207,1.1,1.2,1.3,26.5,89.8,1004.4,0.00,0,0.0,////,0.0,0,0.0,////,25.6,0.0,12.3,3.514
2015/08/01,02:30:01,200,203,206,1.1,1.2,1.2,26.5,90.2,1004.3,0.00,0,0.0,////,0.0,0,0.0,////,25.3,0.0,12.3,3.515
2015/08/01,02:40:01,208,209,211,1.1,1.2,1.3,26.6,89.8,1004.3,0.00,0,0.0,////,0.0,0,0.0,////,25.3,0.0,12.3,3.515
2015/08/01,02:50:01,203,204,205,1.2,1.3,1.4,26.6,89.7,1004.4,0.00,0,0.0,////,0.0,0,0.0,////,25.6,0.0,12.3,3.515
2015/08/01,03:00:01,197,199,200,1.2,1.3,1.3,26.5,90.0,1004.3,0.00,0,0.0,////,0.0,0,0.0,////,25.3,0.0,12.3,3.513
2015/08/01,03:10:01,210,214,217,0.8,1.0,1.1,26.5,90.3,1004.4,0.00,0,0.0,////,0.0,0,0.0,////,25.3,0.0,12.3,3.515
2015/08/01,03:20:01,207,210,212,0.8,0.9,1.1,26.5,90.3,1004.4,0.00,0,0.0,////,0.0,0,0.0,////,25.3,0.0,12.3,3.514
2015/08/01,03:30:01,214,223,229,0.5,0.6,0.8,26.6,89.9,1004.5,0.00,0,0.0,////,0.0,0,0.0,////,25.5,0.0,12.3,3.513
2015/08/01,03:40:01,219,223,225,1.0,1.1,1.2,26.7,89.5,1004.5,0.00,0,0.0,////,0.0,0,0.0,////,25.6,0.0,12.3,3.515
2015/08/01,03:50:01,197,198,199,1.1,1.1,1.2,26.6,89.5,1004.6,0.00,0,0.0,////,0.0,0,0.0,////,25.5,0.0,12.3,3.514
2015/08/01,04:00:01,201,203,204,0.9,1.0,1.1,26.5,89.9,1004.6,0.00,0,0.0,////,0.0,0,0.0,////,25.3,0.0,12.3,3.513
2015/08/01,04:10:01,227,228,229,0.8,0.9,0.9,26.7,89.9,1004.6,0.00,0,0.0,////,0.0,0,0.0,////,25.6,0.0,12.3,3.513
2015/08/01,04:20:01,206,208,210,0.7,0.8,0.8,26.8,89.7,1004.6,0.00,0,0.0,////,0.0,0,0.0,////,26.2,0.0,12.3,3.515
2015/08/01,04:30:01,237,249,255,0.4,0.4,0.5,26.7,89.9,1004.7,0.00,0,0.0,////,0.0,0,0.0,////,25.8,0.0,12.3,3.514
2015/08/01,04:40:01,307,320,345,0.4,0.5,0.6,26.8,89.8,1004.8,0.00,0,0.0,////,0.0,0,0.0,////,25.6,0.0,12.3,3.515
2015/08/01,04:50:01,089,092,093,0.1,0.1,0.2,26.7,90.0,1004.8,0.00,0,0.0,////,0.0,0,0.0,////,25.5,0.0,12.3,3.513
2015/08/01,05:00:01,243,268,291,0.2,0.3,0.4,26.7,90.6,1004.8,0.00,0,0.0,////,0.0,0,0.0,////,25.8,0.0,12.3,3.515
2015/08/01,05:10:01,324,330,334,1.0,1.2,1.4,26.7,87.7,1004.7,0.00,0,0.0,////,0.0,0,0.0,////,25.5,0.0,12.3,3.514
2015/08/01,05:20:01,322,328,333,1.6,1.9,2.2,27.0,85.9,1004.7,0.00,0,0.0,////,0.0,0,0.0,////,25.6,0.0,12.3,3.513
2015/08/01,05:30:01,343,350,354,0.6,0.8,1.0,27.0,85.9,1004.7,0.00,0,0.0,////,0.0,0,0.0,////,25.8,0.0,12.3,3.514
2015/08/01,05:40:01,359,000,001,0.7,0.8,0.9,26.9,85.9,1004.8,0.00,0,0.0,////,0.0,0,0.0,////,25.6,0.0,12.3,3.515
2015/08/01,05:50:01,329,333,337,0.6,0.7,0.9,26.7,86.1,1004.9,0.00,0,0.0,////,0.0,0,0.0,////,25.6,0.0,12.3,3.513
2015/08/01,06:00:01,347,352,358,0.2,0.3,0.4,26.8,86.3,1004.8,0.00,0,0.0,////,0.0,0,0.0,////,25.6,0.0,12.3,3.514
2015/08/01,06:10:01,159,167,175,0.1,0.2,0.2,26.7,86.9,1005.0,0.00,0,0.0,////,0.0,0,0.0,////,25.6,0.0,12.3,3.514
2015/08/01,06:20:01,019,025,030,0.2,0.3,0.3,26.7,87.1,1005.2,0.00,0,0.0,////,0.0,0,0.0,////,25.6,0.0,12.3,3.515
2015/08/01,06:30:01,273,286,315,0.1,0.1,0.2,27.1,86.1,1005.2,0.00,0,0.0,////,0.0,0,0.0,////,26.5,0.0,12.3,3.511
2015/08/01,06:40:01,330,333,336,0.9,0.9,1.0,27.1,86.4,1005.4,0.00,0,0.0,////,0.0,0,0.0,////,26.5,0.0,12.3,3.514
2015/08/01,06:50:01,131,138,146,0.6,0.7,0.8,27.0,86.2,1005.4,0.00,0,0.0,////,0.0,0,0.0,////,26.7,0.0,12.3,3.514
2015/08/01,07:00:01,087,093,096,0.1,0.2,0.3,27.1,86.3,1005.5,0.00,0,0.0,////,0.0,0,0.0,////,26.7,0.0,12.3,3.513
2015/08/01,07:10:01,006,009,012,1.3,1.4,1.5,27.9,84.3,1005.6,0.00,0,0.0,////,0.0,0,0.0,////,28.9,0.0,12.3,3.515
2015/08/01,07:20:01,339,345,350,1.2,1.3,1.4,28.2,82.7,1005.8,0.00,0,0.0,////,0.0,0,0.0,////,30.0,0.0,12.3,3.514
2015/08/01,07:30:01,339,342,345,1.4,1.7,1.8,28.5,81.1,1005.9,0.00,0,0.0,////,0.0,0,0.0,////,30.6,0.0,12.3,3.513
2015/08/01,07:40:01,342,345,346,1.5,1.6,1.8,28.7,78.2,1005.9,0.00,0,0.0,////,0.0,0,0.0,////,31.0,0.0,12.3,3.514
2015/08/01,07:50:01,337,339,340,0.9,1.0,1.1,28.8,78.2,1005.9,0.00,0,0.0,////,0.0,0,0.0,////,31.7,0.0,12.3,3.514
2015/08/01,08:00:01,001,002,004,1.0,1.1,1.1,29.0,78.0,1006.0,0.00,0,0.0,////,0.0,0,0.0,////,32.2,0.0,12.3,3.515
2015/08/01,08:10:01,010,016,023,1.0,1.2,1.5,29.0,78.3,1006.1,0.00,0,0.0,////,0.0,0,0.0,////,32.2,0.0,12.3,3.515
2015/08/01,08:20:01,351,358,002,0.6,0.8,1.1,29.1,78.7,1006.1,0.00,0,0.0,////,0.0,0,0.0,////,32.2,0.0,12.3,3.511
2015/08/01,08:30:01,000,005,008,0.8,1.0,1.2,29.7,76.5,1006.2,0.00,0,0.0,////,0.0,0,0.0,////,33.4,0.0,12.3,3.513
2015/08/01,08:40:01,305,309,314,1.2,1.3,1.4,29.5,74.6,1006.2,0.00,0,0.0,////,0.0,0,0.0,////,33.4,0.0,12.3,3.514
2015/08/01,08:50:01,013,016,018,1.2,1.4,1.6,29.4,76.0,1006.3,0.00,0,0.0,////,0.0,0,0.0,////,33.7,0.0,12.3,3.514
2015/08/01,09:00:01,304,307,308,1.7,1.8,1.9,29.6,74.9,1006.3,0.00,0,0.0,////,0.0,0,0.0,////,34.3,0.0,12.3,3.511
2015/08/01,09:10:01,357,004,012,1.3,1.4,1.6,30.0,74.9,1006.2,0.00,0,0.0,////,0.0,0,0.0,////,34.8,0.0,12.3,3.513
2015/08/01,09:20:01,329,329,330,1.1,1.2,1.4,29.6,76.1,1006.4,0.00,0,0.0,////,0.0,0,0.0,////,34.4,0.0,12.3,3.513
2015/08/01,09:30:01,307,313,318,1.2,1.4,1.6,29.8,74.1,1006.5,0.00,0,0.0,////,0.0,0,0.0,////,35.0,0.0,12.3,3.515
2015/08/01,09:40:01,302,304,308,1.8,1.9,2.1,29.6,75.5,1006.5,0.00,0,0.0,////,0.0,0,0.0,////,34.4,0.0,12.3,3.513
2015/08/01,09:50:01,313,317,321,0.5,0.8,1.0,30.0,75.5,1006.5,0.00,0,0.0,////,0.0,0,0.0,////,35.1,0.0,12.3,3.515
2015/08/01,10:00:01,354,356,357,1.8,1.9,2.0,29.9,72.8,1006.6,0.00,0,0.0,////,0.0,0,0.0,////,35.0,0.0,12.3,3.513
2015/08/01,10:10:01,005,007,011,1.7,2.0,2.2,29.6,76.9,1006.8,0.00,0,0.0,////,0.0,0,0.0,////,34.8,0.0,12.3,3.514
2015/08/01,10:20:01,348,353,000,1.4,1.7,1.9,29.5,77.8,1006.7,0.00,0,0.0,////,0.0,0,0.0,////,34.6,0.0,12.3,3.514
2015/08/01,10:30:01,001,008,015,0.8,1.1,1.3,29.0,79.4,1006.7,0.00,0,0.0,////,0.0,0,0.0,////,34.1,0.0,12.3,3.514
2015/08/01,10:40:01,340,342,345,1.0,1.1,1.3,28.6,79.8,1006.6,0.00,0,0.0,////,0.0,0,0.0,////,31.3,0.0,12.3,3.515
2015/08/01,10:50:01,012,022,030,2.7,2.9,3.2,28.9,80.1,1006.5,0.00,0,0.0,////,0.0,0,0.0,////,30.3,0.0,12.3,3.515
2015/08/01,11:00:01,020,022,028,3.6,3.9,4.2,29.0,77.4,1006.5,0.00,0,0.0,////,0.0,0,0.0,////,31.2,0.0,12.3,3.514
2015/08/01,11:10:01,002,009,014,2.8,3.1,3.2,29.7,76.8,1006.5,0.00,0,0.0,////,0.0,0,0.0,////,32.5,0.0,12.3,3.514
2015/08/01,11:20:01,026,029,034,3.2,3.4,3.6,29.8,76.7,1006.5,0.00,0,0.0,////,0.0,0,0.0,////,32.7,0.0,12.3,3.514
2015/08/01,11:30:01,003,029,062,1.0,1.3,1.7,29.6,77.6,1006.5,0.00,0,0.0,////,0.0,0,0.0,////,33.1,0.0,12.3,3.511
2015/08/01,11:40:01,027,033,036,2.3,2.5,2.7,29.9,74.6,1006.4,0.00,0,0.0,////,0.0,0,0.0,////,33.4,0.0,12.3,3.515
2015/08/01,11:50:01,341,353,000,1.7,2.2,2.5,29.5,77.2,1006.4,0.00,0,0.0,////,0.0,0,0.0,////,33.6,0.0,12.3,3.514
2015/08/01,12:00:01,027,035,048,1.7,1.9,2.2,29.9,74.6,1006.3,0.00,0,0.0,////,0.0,0,0.0,////,33.4,0.0,12.3,3.515
2015/08/01,12:10:01,011,021,027,3.0,3.1,3.2,29.8,72.6,1006.2,0.00,0,0.0,////,0.0,0,0.0,////,33.6,0.0,12.3,3.515
2015/08/01,12:20:01,015,018,022,3.8,4.3,4.7,30.1,73.3,1006.2,0.00,0,0.0,////,0.0,0,0.0,////,33.9,0.0,12.3,3.514
2015/08/01,12:30:01,017,021,023,2.9,3.3,3.7,29.9,73.9,1006.2,0.00,0,0.0,////,0.0,0,0.0,////,33.2,0.0,12.3,3.514
2015/08/01,12:40:01,022,026,031,2.6,3.2,3.7,29.9,73.8,1006.2,0.00,0,0.0,////,0.0,0,0.0,////,33.4,0.0,12.2,3.511
2015/08/01,12:50:01,018,032,048,2.6,3.0,3.2,29.7,72.3,1006.1,0.00,0,0.0,////,0.0,0,0.0,////,33.4,0.0,12.3,3.514
2015/08/01,13:00:01,003,005,009,2.7,3.1,3.3,30.0,71.0,1006.1,0.00,0,0.0,////,0.0,0,0.0,////,33.4,0.0,12.3,3.516
2015/08/01,13:10:01,033,037,039,2.5,2.9,3.2,29.6,71.8,1006.1,0.00,0,0.0,////,0.0,0,0.0,////,33.2,0.0,12.3,3.513
2015/08/01,13:20:01,356,000,004,2.7,3.0,3.4,29.9,71.6,1006.0,0.00,0,0.0,////,0.0,0,0.0,////,33.2,0.0,12.3,3.510
2015/08/01,13:30:01,004,006,009,3.2,3.4,3.7,29.9,71.7,1006.0,0.00,0,0.0,////,0.0,0,0.0,////,33.4,0.0,12.3,3.514
2015/08/01,13:40:01,354,356,000,4.1,4.4,4.6,30.2,69.5,1005.9,0.00,0,0.0,////,0.0,0,0.0,////,33.7,0.0,12.3,3.514
2015/08/01,13:50:01,000,020,038,2.2,2.5,3.0,30.0,69.9,1005.8,0.00,0,0.0,////,0.0,0,0.0,////,33.4,0.0,12.3,3.514
2015/08/01,14:00:01,011,025,035,1.4,2.2,2.9,29.7,72.3,1005.7,0.00,0,0.0,////,0.0,0,0.0,////,33.2,0.0,12.3,3.514
2015/08/01,14:10:01,357,359,001,3.7,4.0,4.2,29.8,72.5,1005.7,0.00,0,0.0,////,0.0,0,0.0,////,33.1,0.0,12.3,3.513
2015/08/01,14:20:01,011,018,024,3.6,3.9,4.2,30.2,69.0,1005.8,0.00,0,0.0,////,0.0,0,0.0,////,33.2,0.0,12.3,3.514
2015/08/01,14:30:01,021,025,031,3.1,3.5,3.7,29.9,70.4,1005.8,0.00,0,0.0,////,0.0,0,0.0,////,33.1,0.0,12.3,3.515
2015/08/01,14:40:01,004,008,016,3.1,4.1,5.0,30.2,70.7,1005.6,0.00,0,0.0,////,0.0,0,0.0,////,32.7,0.0,12.3,3.511
2015/08/01,14:50:01,013,016,017,4.3,4.3,4.4,29.8,73.2,1005.5,0.00,0,0.0,////,0.0,0,0.0,////,32.4,0.0,12.3,3.514
2015/08/01,15:00:01,043,047,053,2.1,2.5,2.9,29.8,72.6,1005.5,0.00,0,0.0,////,0.0,0,0.0,////,32.4,0.0,12.3,3.513
2015/08/01,15:10:01,034,038,046,3.1,3.4,3.8,29.9,72.2,1005.4,0.00,0,0.0,////,0.0,0,0.0,////,32.2,0.0,12.3,3.514
2015/08/01,15:20:01,011,017,025,2.4,2.9,3.4,30.0,70.4,1005.4,0.00,0,0.0,////,0.0,0,0.0,////,32.4,0.0,12.3,3.514
2015/08/01,15:30:01,016,031,044,3.6,3.9,4.2,29.6,70.7,1005.4,0.00,0,0.0,////,0.0,0,0.0,////,32.0,0.0,12.3,3.515
2015/08/01,15:40:01,029,030,032,1.5,1.6,1.7,29.8,73.1,1005.3,0.00,0,0.0,////,0.0,0,0.0,////,32.0,0.0,12.3,3.513
2015/08/01,15:50:01,005,011,015,3.2,3.5,3.7,29.6,72.7,1005.3,0.00,0,0.0,////,0.0,0,0.0,////,32.0,0.0,12.3,3.514
2015/08/01,16:00:01,323,352,009,2.4,3.1,3.7,29.6,72.6,1005.2,0.00,0,0.0,////,0.0,0,0.0,////,31.8,0.0,12.3,3.514
2015/08/01,16:10:01,352,013,038,1.8,2.4,2.8,29.6,73.4,1005.2,0.00,0,0.0,////,0.0,0,0.0,////,31.8,0.0,12.3,3.514
2015/08/01,16:20:01,027,035,041,3.8,4.2,4.6,29.6,74.1,1005.0,0.00,0,0.0,////,0.0,0,0.0,////,31.5,0.0,12.3,3.514
2015/08/01,16:30:01,017,028,038,3.0,3.6,4.1,29.5,74.8,1005.0,0.00,0,0.0,////,0.0,0,0.0,////,31.3,0.0,12.3,3.514
2015/08/01,16:40:01,006,010,015,4.1,4.2,4.3,29.2,75.0,1005.0,0.00,0,0.0,////,0.0,0,0.0,////,31.0,0.0,12.3,3.511
2015/08/01,16:50:01,019,030,036,2.8,3.1,3.5,29.3,76.1,1004.9,0.00,0,0.0,////,0.0,0,0.0,////,30.8,0.0,12.3,3.514
2015/08/01,17:00:01,030,042,051,3.1,3.2,3.4,29.2,76.7,1005.0,0.00,0,0.0,////,0.0,0,0.0,////,30.6,0.0,12.3,3.514
2015/08/01,17:10:01,019,020,021,4.8,5.1,5.3,29.1,76.7,1005.0,0.00,0,0.0,////,0.0,0,0.0,////,30.5,0.0,12.3,3.514
2015/08/01,17:20:01,025,032,040,4.3,4.4,4.5,29.1,76.5,1004.9,0.00,0,0.0,////,0.0,0,0.0,////,30.5,0.0,12.3,3.515
2015/08/01,17:30:01,018,026,036,3.1,3.5,4.2,29.0,75.0,1004.9,0.00,0,0.0,////,0.0,0,0.0,////,30.3,0.0,12.3,3.515
2015/08/01,17:40:01,027,040,049,3.7,4.1,4.5,28.8,77.7,1004.8,0.00,0,0.0,////,0.0,0,0.0,////,30.0,0.0,12.3,3.515
2015/08/01,17:50:01,001,008,019,1.6,2.3,2.7,28.7,77.1,1004.9,0.00,0,0.0,////,0.0,0,0.0,////,29.4,0.0,12.3,3.513
2015/08/01,18:00:01,026,034,048,1.6,1.9,2.2,28.7,77.7,1005.0,0.00,0,0.0,////,0.0,0,0.0,////,29.4,0.0,12.3,3.515
2015/08/01,18:10:01,041,044,050,3.4,3.7,4.1,28.5,77.3,1004.9,0.00,0,0.0,////,0.0,0,0.0,////,29.1,0.0,12.3,3.514
2015/08/01,18:20:01,026,029,032,2.6,2.7,2.8,28.4,78.8,1005.0,0.00,0,0.0,////,0.0,0,0.0,////,28.9,0.0,12.3,3.515
2015/08/01,18:30:01,034,039,042,2.9,3.1,3.2,28.3,79.1,1005.0,0.00,0,0.0,////,0.0,0,0.0,////,28.6,0.0,12.3,3.513
2015/08/01,18:40:01,032,033,036,2.9,3.1,3.3,28.2,80.4,1005.0,0.00,0,0.0,////,0.0,0,0.0,////,28.4,0.0,12.3,3.515
2015/08/01,18:50:01,030,033,037,2.8,3.7,4.3,28.2,80.6,1005.1,0.00,0,0.0,////,0.0,0,0.0,////,28.2,0.0,12.3,3.518
2015/08/01,19:00:01,009,026,036,1.7,2.3,3.0,28.0,81.7,1005.2,0.00,0,0.0,////,0.0,0,0.0,////,27.7,0.0,12.3,3.515
2015/08/01,19:10:01,032,035,041,2.6,2.8,2.9,27.9,81.6,1005.3,0.00,0,0.0,////,0.0,0,0.0,////,27.5,0.0,12.3,3.511
2015/08/01,19:20:01,042,047,053,1.8,2.6,3.2,27.9,82.4,1005.2,0.00,0,0.0,////,0.0,0,0.0,////,27.0,0.0,12.3,3.514
2015/08/01,19:30:01,004,013,025,1.6,1.9,2.3,27.8,82.7,1005.2,0.00,0,0.0,////,0.0,0,0.0,////,27.0,0.0,12.3,3.514
2015/08/01,19:40:01,021,025,030,1.9,2.4,2.7,27.8,83.6,1005.3,0.00,0,0.0,////,0.0,0,0.0,////,27.0,0.0,12.3,3.515
2015/08/01,19:50:01,099,103,111,1.8,1.9,1.9,27.9,82.7,1005.3,0.00,0,0.0,////,0.0,0,0.0,////,27.2,0.0,12.3,3.514
2015/08/01,20:00:01,063,065,066,1.7,2.0,2.3,27.8,79.3,1005.4,0.00,0,0.0,////,0.0,0,0.0,////,27.2,0.0,12.3,3.515
2015/08/01,20:10:01,077,085,091,1.3,1.9,2.2,27.7,79.7,1005.5,0.00,0,0.0,////,0.0,0,0.0,////,27.0,0.0,12.3,3.516
2015/08/01,20:20:01,053,060,064,2.2,2.5,2.9,27.7,79.3,1005.5,0.00,0,0.0,////,0.0,0,0.0,////,26.7,0.0,12.3,3.515
2015/08/01,20:30:01,068,080,091,1.0,1.4,1.8,27.6,80.3,1005.6,0.00,0,0.0,////,0.0,0,0.0,////,26.7,0.0,12.3,3.513
2015/08/01,20:40:01,073,082,087,1.4,1.7,2.1,27.5,81.3,1005.5,0.00,0,0.0,////,0.0,0,0.0,////,26.5,0.0,12.3,3.514
2015/08/01,20:50:01,093,100,105,1.5,1.7,2.1,27.5,82.1,1005.7,0.00,0,0.0,////,0.0,0,0.0,////,26.5,0.0,12.3,3.514
2015/08/01,21:00:01,085,097,111,2.1,2.4,2.8,27.3,83.1,1005.7,0.00,0,0.0,////,0.0,0,0.0,////,26.2,0.0,12.3,3.515
2015/08/01,21:10:01,077,088,097,1.6,1.7,1.9,27.2,83.4,1005.7,0.00,0,0.0,////,0.0,0,0.0,////,26.2,0.0,12.3,3.515
2015/08/01,21:20:01,006,023,036,0.8,0.9,1.0,27.3,83.6,1005.9,0.00,0,0.0,////,0.0,0,0.0,////,26.2,0.0,12.3,3.515
2015/08/01,21:30:01,059,061,062,1.0,1.1,1.1,27.2,84.8,1006.0,0.00,0,0.0,////,0.0,0,0.0,////,26.2,0.0,12.3,3.514
2015/08/01,21:40:01,126,129,134,1.3,1.4,1.5,27.0,85.9,1006.0,0.00,0,0.0,////,0.0,0,0.0,////,26.0,0.0,12.3,3.513
2015/08/01,21:50:01,129,135,141,1.1,1.2,1.4,26.9,86.1,1006.1,0.00,0,0.0,////,0.0,0,0.0,////,25.8,0.0,12.3,3.514
2015/08/01,22:00:01,130,133,136,1.3,1.4,1.6,26.8,86.4,1006.2,0.00,0,0.0,////,0.0,0,0.0,////,26.0,0.0,12.3,3.516
2015/08/01,22:10:01,139,139,139,1.0,1.1,1.3,27.0,85.5,1006.2,0.00,0,0.0,////,0.0,0,0.0,////,26.0,0.0,12.3,3.513
2015/08/01,22:20:01,145,149,155,1.0,1.1,1.2,26.8,86.1,1006.2,0.00,0,0.0,////,0.0,0,0.0,////,26.0,0.0,12.3,3.514
2015/08/01,22:30:01,136,141,144,1.9,2.0,2.2,26.7,86.3,1006.1,0.00,0,0.0,////,0.0,0,0.0,////,25.8,0.0,12.3,3.515
2015/08/01,22:40:01,132,134,138,1.8,2.0,2.2,26.9,86.0,1006.0,0.00,0,0.0,////,0.0,0,0.0,////,26.0,0.0,12.3,3.514
2015/08/01,22:50:01,151,152,153,1.8,2.0,2.2,26.8,86.6,1006.1,0.00,0,0.0,////,0.0,0,0.0,////,26.0,0.0,12.3,3.514
2015/08/01,23:00:01,129,133,135,1.1,1.4,1.6,26.7,86.7,1006.1,0.00,0,0.0,////,0.0,0,0.0,////,25.8,0.0,12.3,3.519
2015/08/01,23:10:01,116,129,149,1.1,1.3,1.5,26.7,86.4,1006.0,0.00,0,0.0,////,0.0,0,0.0,////,25.6,0.0,12.3,3.513
2015/08/01,23:20:01,133,136,139,1.1,1.3,1.6,26.7,86.0,1006.0,0.00,0,0.0,////,0.0,0,0.0,////,25.6,0.0,12.3,3.514
2015/08/01,23:30:01,123,128,132,1.2,1.4,1.5,26.8,86.3,1006.0,0.00,0,0.0,////,0.0,0,0.0,////,25.5,0.0,12.3,3.515
2015/08/01,23:40:01,142,149,155,1.0,1.1,1.2,26.7,86.7,1005.9,0.00,0,0.0,////,0.0,0,0.0,////,25.6,0.0,12.3,3.511
2015/08/01,23:50:01,135,141,145,1.6,1.7,1.8,26.6,87.2,1005.9,0.00,0,0.0,////,0.0,0,0.0,////,25.8,0.0,12.3,3.514
2015/08/02,00:00:01,130,131,132,1.2,1.4,1.6,26.6,87.0,1005.9,0.00,0,0.0,////,0.0,0,0.0,////,25.6,0.0,12.3,3.514
2015/08/02,00:10:01,148,152,156,0.9,1.1,1.4,26.5,87.0,1005.8,0.00,0,0.0,////,0.0,0,0.0,////,25.6,0.0,12.3,3.514
2015/08/02,00:20:01,140,150,155,1.3,1.4,1.6,26.5,87.4,1005.6,0.00,0,0.0,////,0.0,0,0.0,////,25.5,0.0,12.3,3.515
2015/08/02,00:30:01,140,146,155,1.0,1.3,1.6,26.6,87.2,1005.7,0.00,0,0.0,////,0.0,0,0.0,////,25.6,0.0,12.3,3.514
2015/08/02,00:40:01,157,159,163,1.0,1.1,1.2,26.5,87.4,1005.6,0.00,0,0.0,////,0.0,0,0.0,////,25.5,0.0,12.3,3.516
2015/08/02,00:50:01,152,156,158,0.8,0.9,1.0,26.6,87.4,1005.5,0.00,0,0.0,////,0.0,0,0.0,////,25.5,0.0,12.3,3.514
2015/08/02,01:00:01,154,155,157,0.8,0.9,1.0,26.6,87.4,1005.5,0.00,0,0.0,////,0.0,0,0.0,////,25.5,0.0,12.3,3.513
2015/08/02,01:10:01,149,153,159,0.6,0.8,0.9,26.6,87.6,1005.4,0.00,0,0.0,////,0.0,0,0.0,////,25.5,0.0,12.3,3.513
2015/08/02,01:20:01,156,162,167,1.2,1.4,1.5,26.6,87.6,1005.4,0.00,0,0.0,////,0.0,0,0.0,////,25.5,0.0,12.3,3.516
2015/08/02,01:30:01,159,168,175,0.6,0.7,0.9,26.7,86.9,1005.2,0.00,0,0.0,////,0.0,0,0.0,////,25.5,0.0,12.3,3.515
2015/08/02,01:40:01,150,158,162,0.7,0.7,0.8,26.7,87.1,1005.1,0.00,0,0.0,////,0.0,0,0.0,////,25.6,0.0,12.3,3.514
2015/08/02,01:50:01,156,157,158,0.8,0.9,0.9,26.7,87.3,1005.1,0.00,0,0.0,////,0.0,0,0.0,////,25.5,0.0,12.3,3.515
2015/08/02,02:00:01,164,165,166,0.3,0.4,0.5,26.7,87.4,1005.1,0.00,0,0.0,////,0.0,0,0.0,////,25.5,0.0,12.3,3.514
2015/08/02,02:10:01,149,149,149,0.4,0.5,0.6,26.7,87.5,1005.0,0.00,0,0.0,////,0.0,0,0.0,////,25.6,0.0,12.3,3.514
2015/08/02,02:20:01,194,196,197,0.9,1.0,1.1,26.8,87.5,1005.0,0.00,0,0.0,////,0.0,0,0.0,////,25.5,0.0,12.3,3.515
2015/08/02,02:30:01,164,170,175,0.4,0.5,0.6,26.8,86.4,1005.1,0.00,0,0.0,////,0.0,0,0.0,////,25.5,0.0,12.3,3.514
2015/08/02,02:40:01,186,190,196,0.9,1.0,1.1,26.5,87.2,1005.1,0.00,0,0.0,////,0.0,0,0.0,////,25.5,0.0,12.3,3.515
2015/08/02,02:50:01,175,180,182,0.6,0.6,0.7,26.5,87.2,1005.0,0.00,0,0.0,////,0.0,0,0.0,////,25.3,0.0,12.3,3.515
2015/08/02,03:00:01,161,163,165,1.2,1.3,1.4,26.6,85.8,1005.0,0.00,0,0.0,////,0.0,0,0.0,////,25.5,0.0,12.3,3.515
2015/08/02,03:10:01,167,168,170,0.9,1.0,1.1,26.6,85.6,1004.9,0.00,0,0.0,////,0.0,0,0.0,////,25.5,0.0,12.3,3.511
2015/08/02,03:20:01,172,178,186,0.9,1.0,1.1,26.8,85.0,1005.0,0.00,0,0.0,////,0.0,0,0.0,////,25.5,0.0,12.3,3.515
2015/08/02,03:30:01,198,202,205,1.3,1.4,1.5,26.3,86.8,1004.9,0.00,0,0.0,////,0.0,0,0.0,////,25.6,0.0,12.3,3.514
2015/08/02,03:40:01,199,199,200,0.8,0.9,0.9,26.1,88.1,1004.8,0.00,0,0.0,////,0.0,0,0.0,////,25.1,0.0,12.3,3.514
2015/08/02,03:50:01,193,195,198,1.4,1.6,1.7,26.0,88.9,1004.9,0.00,0,0.0,////,0.0,0,0.0,////,25.0,0.0,12.3,3.513
2015/08/02,04:00:01,185,188,192,1.7,1.8,1.9,25.7,89.4,1004.8,0.00,0,0.0,////,0.0,0,0.0,////,24.6,0.0,12.3,3.515
2015/08/02,04:10:01,186,187,188,1.3,1.4,1.4,25.8,88.8,1004.9,0.00,0,0.0,////,0.0,0,0.0,////,24.6,0.0,12.3,3.515
2015/08/02,04:20:01,190,192,193,1.4,1.5,1.6,26.1,88.6,1004.9,0.00,0,0.0,////,0.0,0,0.0,////,25.0,0.0,12.3,3.514
2015/08/02,04:30:01,194,195,196,1.3,1.3,1.4,26.1,87.7,1005.0,0.00,0,0.0,////,0.0,0,0.0,////,25.1,0.0,12.3,3.515
2015/08/02,04:40:01,193,195,197,1.2,1.3,1.4,26.4,86.7,1005.1,0.00,0,0.0,////,0.0,0,0.0,////,25.0,0.0,12.3,3.511
2015/08/02,04:50:01,195,195,196,0.8,0.8,0.9,26.5,85.9,1005.1,0.00,0,0.0,////,0.0,0,0.0,////,25.1,0.0,12.3,3.514
2015/08/02,05:00:01,189,191,192,0.7,0.7,0.8,26.6,85.1,1005.2,0.00,0,0.0,////,0.0,0,0.0,////,25.3,0.0,12.3,3.514
2015/08/02,05:10:01,159,168,177,0.0,0.1,0.1,26.7,84.6,1005.3,0.00,0,0.0,////,0.0,0,0.0,////,25.3,0.0,12.3,3.514
2015/08/02,05:20:01,235,236,236,0.1,0.2,0.2,26.5,85.8,1005.3,0.00,0,0.0,////,0.0,0,0.0,////,25.0,0.0,12.3,3.515
2015/08/02,05:30:01,052,053,054,0.2,0.3,0.3,26.5,86.1,1005.3,0.00,0,0.0,////,0.0,0,0.0,////,25.0,0.0,12.3,3.514
2015/08/02,05:40:01,114,117,122,0.5,0.6,0.7,26.5,85.6,1005.3,0.00,0,0.0,////,0.0,0,0.0,////,25.1,0.0,12.3,3.514
2015/08/02,05:50:01,180,181,181,1.0,1.0,1.1,26.4,86.3,1005.5,0.00,0,0.0,////,0.0,0,0.0,////,25.1,0.0,12.3,3.514
2015/08/02,06:00:01,185,186,186,0.9,1.0,1.0,26.3,86.7,1005.6,0.00,0,0.0,////,0.0,0,0.0,////,25.1,0.0,12.3,3.513
2015/08/02,06:10:01,188,188,188,1.1,1.1,1.2,26.5,85.8,1005.8,0.00,0,0.0,////,0.0,0,0.0,////,25.5,0.0,12.3,3.515
2015/08/02,06:20:01,192,193,193,0.7,0.7,0.8,26.6,85.0,1005.8,0.00,0,0.0,////,0.0,0,0.0,////,25.8,0.0,12.3,3.513
2015/08/02,06:30:01,272,276,278,0.3,0.4,0.5,26.9,84.9,1006.0,0.00,0,0.0,////,0.0,0,0.0,////,26.5,0.0,12.3,3.516
2015/08/02,06:40:01,210,211,212,1.0,1.1,1.2,27.0,84.9,1006.0,0.00,0,0.0,////,0.0,0,0.0,////,27.2,0.0,12.3,3.514
2015/08/02,06:50:01,217,217,218,0.3,0.4,0.5,27.2,85.3,1006.1,0.00,0,0.0,////,0.0,0,0.0,////,27.7,0.0,12.3,3.513
2015/08/02,07:00:01,249,258,271,0.0,0.1,0.2,27.6,82.9,1006.2,0.00,0,0.0,////,0.0,0,0.0,////,28.6,0.0,12.3,3.513
2015/08/02,07:10:01,306,308,310,0.2,0.4,0.5,28.4,82.0,1006.3,0.00,0,0.0,////,0.0,0,0.0,////,29.8,0.0,12.3,3.513
2015/08/02,07:20:01,318,325,335,0.3,0.4,0.5,28.7,79.2,1006.5,0.00,0,0.0,////,0.0,0,0.0,////,31.0,0.0,12.3,3.515
2015/08/02,07:30:01,238,292,325,0.2,0.3,0.4,28.6,80.4,1006.6,0.00,0,0.0,////,0.0,0,0.0,////,31.8,0.0,12.3,3.515
2015/08/02,07:40:01,197,207,217,0.3,0.4,0.5,28.7,79.3,1006.6,0.00,0,0.0,////,0.0,0,0.0,////,31.5,0.0,12.3,3.514
2015/08/02,07:50:01,329,338,346,0.5,0.6,0.8,29.2,78.1,1006.7,0.00,0,0.0,////,0.0,0,0.0,////,32.4,0.0,12.3,3.511
2015/08/02,08:00:01,229,299,039,0.1,0.2,0.3,29.5,77.6,1006.7,0.00,0,0.0,////,0.0,0,0.0,////,33.2,0.0,12.3,3.511
2015/08/02,08:10:01,298,307,312,0.5,0.7,0.8,29.1,77.0,1006.8,0.00,0,0.0,////,0.0,0,0.0,////,33.6,0.0,12.3,3.514
2015/08/02,08:20:01,329,336,340,2.0,2.1,2.2,28.7,78.3,1006.8,0.00,0,0.0,////,0.0,0,0.0,////,32.9,0.0,12.3,3.515
2015/08/02,08:30:01,336,338,340,1.6,1.7,1.9,28.6,78.5,1006.9,0.00,0,0.0,////,0.0,0,0.0,////,32.4,0.0,12.3,3.514
2015/08/02,08:40:01,040,065,084,0.4,0.9,1.5,28.6,80.8,1006.9,0.00,0,0.0,////,0.0,0,0.0,////,31.7,0.0,12.3,3.513
2015/08/02,08:50:01,325,329,332,1.0,1.2,1.3,28.8,78.9,1007.0,0.00,0,0.0,////,0.0,0,0.0,////,32.4,0.0,12.3,3.514
2015/08/02,09:00:01,318,328,333,0.6,0.7,0.8,28.7,81.3,1007.0,0.00,0,0.0,////,0.0,0,0.0,////,32.2,0.0,12.3,3.514
2015/08/02,09:10:01,354,359,002,1.2,1.3,1.5,28.6,77.9,1007.0,0.00,0,0.0,////,0.0,0,0.0,////,31.5,0.0,12.3,3.514
2015/08/02,09:20:01,349,357,004,1.9,2.2,2.5,29.1,77.3,1007.1,0.00,0,0.0,////,0.0,0,0.0,////,32.4,0.0,12.3,3.514
2015/08/02,09:30:01,354,355,355,2.2,2.3,2.5,29.4,77.1,1007.2,0.00,0,0.0,////,0.0,0,0.0,////,32.7,0.0,12.3,3.514
2015/08/02,09:40:01,028,032,035,1.6,2.0,2.3,29.3,75.3,1007.3,0.00,0,0.0,////,0.0,0,0.0,////,33.1,0.0,12.3,3.514
2015/08/02,09:50:01,011,013,014,2.6,2.8,3.0,29.1,73.7,1007.3,0.00,0,0.0,////,0.0,0,0.0,////,33.2,0.0,12.3,3.513
2015/08/02,10:00:01,346,356,013,1.8,2.0,2.2,29.1,77.1,1007.3,0.00,0,0.0,////,0.0,0,0.0,////,32.9,0.0,12.3,3.513
2015/08/02,10:10:01,015,016,018,2.9,3.0,3.1,29.2,74.4,1007.3,0.00,0,0.0,////,0.0,0,0.0,////,33.1,0.0,12.3,3.513
2015/08/02,10:20:01,345,357,006,1.4,1.6,1.8,29.2,76.6,1007.4,0.00,0,0.0,////,0.0,0,0.0,////,32.9,0.0,12.3,3.514
2015/08/02,10:30:01,051,055,058,1.8,2.0,2.2,29.1,77.4,1007.3,0.00,0,0.0,////,0.0,0,0.0,////,33.1,0.0,12.3,3.515
2015/08/02,10:40:01,019,019,020,3.3,3.6,3.9,29.5,75.3,1007.4,0.00,0,0.0,////,0.0,0,0.0,////,32.9,0.0,12.3,3.514